Time,TemperatureF,DewpointF,PressureIn,WindDirection,WindDirectionDegrees,WindSpeedMPH,WindSpeedGustMPH,Humidity,HourlyPrecipIn,Conditions,Clouds,dailyrainin,SoftwareType,DateUTC
2013-05-24 00:02:00,48.0,43.0,30.30,ENE,65,0.0,0.0,82,0.00,,,0.00,,2013-05-24 05:02:00,
2013-05-24 00:12:00,48.0,43.0,30.30,ENE,65,0.0,0.0,82,0.00,,,0.00,,2013-05-24 05:12:00,
2013-05-24 00:22:00,47.0,42.0,30.30,NE,34,0.0,0.0,82,0.00,,,0.00,,2013-05-24 05:22:00,
2013-05-24 00:32:00,47.0,42.0,30.31,NE,34,0.0,0.0,84,0.00,,,0.00,,2013-05-24 05:32:00,
2013-05-24 00:42:00,47.0,42.0,30.31,NE,34,0.0,0.0,84,0.00,,,0.00,,2013-05-24 05:42:00,
2013-05-24 00:52:00,47.0,42.0,30.31,NNE,30,0.0,0.0,83,0.00,,,0.00,,2013-05-24 05:52:00,
2013-05-24 01:02:00,47.0,42.0,30.31,NNE,31,0.0,0.0,84,0.00,,,0.00,,2013-05-24 06:02:00,
2013-05-24 01:12:00,47.0,42.0,30.31,NNE,31,0.0,0.0,84,0.00,,,0.00,,2013-05-24 06:12:00,
2013-05-24 01:21:00,46.0,41.0,30.32,NNE,30,0.0,0.0,84,0.00,,,0.00,,2013-05-24 06:21:00,
2013-05-24 01:32:00,46.0,41.0,30.32,NNE,23,0.0,1.0,84,0.00,,,0.00,,2013-05-24 06:32:00,
2013-05-24 01:42:00,46.0,41.0,30.32,NNE,23,0.0,1.0,84,0.00,,,0.00,,2013-05-24 06:42:00,
2013-05-24 01:52:00,46.0,42.0,30.32,NNE,23,0.0,0.0,85,0.00,,,0.00,,2013-05-24 06:52:00,
2013-05-24 02:01:00,46.0,42.0,30.32,NNE,23,0.0,0.0,85,0.00,,,0.00,,2013-05-24 07:01:00,
2013-05-24 02:11:00,46.0,42.0,30.32,NNE,23,0.0,0.0,85,0.00,,,0.00,,2013-05-24 07:11:00,
2013-05-24 02:22:00,45.0,41.0,30.32,NNE,23,0.0,0.0,86,0.00,,,0.00,,2013-05-24 07:22:00,
2013-05-24 02:32:00,44.0,41.0,30.32,NNE,23,0.0,0.0,88,0.00,,,0.00,,2013-05-24 07:32:00,
2013-05-24 02:42:00,44.0,41.0,30.32,NNE,23,0.0,0.0,88,0.00,,,0.00,,2013-05-24 07:42:00,
2013-05-24 02:52:00,44.0,41.0,30.32,NNE,23,0.0,0.0,89,0.00,,,0.00,,2013-05-24 07:52:00,
2013-05-24 03:02:00,43.0,40.0,30.32,NNE,23,0.0,0.0,89,0.00,,,0.00,,2013-05-24 08:02:00,
2013-05-24 03:11:00,43.0,40.0,30.32,NNE,23,0.0,0.0,89,0.00,,,0.00,,2013-05-24 08:11:00,
2013-05-24 03:22:00,43.0,40.0,30.33,NNE,23,0.0,1.0,90,0.00,,,0.00,,2013-05-24 08:22:00,
2013-05-24 03:32:00,43.0,40.0,30.33,NNE,23,0.0,0.0,90,0.00,,,0.00,,2013-05-24 08:32:00,
2013-05-24 03:42:00,43.0,40.0,30.33,NNE,23,0.0,0.0,90,0.00,,,0.00,,2013-05-24 08:42:00,
2013-05-24 03:52:00,42.0,39.0,30.32,NNE,26,0.0,0.0,90,0.00,,,0.00,,2013-05-24 08:52:00,
2013-05-24 04:02:00,42.0,40.0,30.33,NNE,26,0.0,1.0,91,0.00,,,0.00,,2013-05-24 09:02:00,
2013-05-24 04:11:00,42.0,40.0,30.33,NNE,26,0.0,1.0,91,0.00,,,0.00,,2013-05-24 09:11:00,
2013-05-24 04:21:00,43.0,40.0,30.33,NE,46,0.0,1.0,89,0.00,,,0.00,,2013-05-24 09:21:00,
2013-05-24 04:32:00,42.0,39.0,30.33,ENE,64,0.0,1.0,89,0.00,,,0.00,,2013-05-24 09:32:00,
2013-05-24 04:42:00,42.0,39.0,30.33,ENE,64,0.0,1.0,89,0.00,,,0.00,,2013-05-24 09:42:00,
2013-05-24 04:52:00,42.0,39.0,30.33,ENE,77,0.0,1.0,89,0.00,,,0.00,,2013-05-24 09:52:00,
2013-05-24 05:03:00,42.0,39.0,30.33,East,89,0.0,1.0,89,0.00,,,0.00,,2013-05-24 10:03:00,
2013-05-24 05:12:00,42.0,39.0,30.33,East,89,0.0,1.0,89,0.00,,,0.00,,2013-05-24 10:12:00,
2013-05-24 05:22:00,42.0,39.0,30.33,East,98,1.0,2.0,89,0.00,,,0.00,,2013-05-24 10:22:00,
2013-05-24 05:32:00,42.0,38.0,30.33,SE,125,0.0,1.0,86,0.00,,,0.00,,2013-05-24 10:32:00,
2013-05-24 05:42:00,42.0,38.0,30.33,SE,125,0.0,1.0,86,0.00,,,0.00,,2013-05-24 10:42:00,
2013-05-24 05:52:00,42.0,38.0,30.33,ESE,109,1.0,2.0,86,0.00,,,0.00,,2013-05-24 10:52:00,
2013-05-24 06:02:00,42.0,37.0,30.33,ESE,115,3.0,6.0,83,0.00,,,0.00,,2013-05-24 11:02:00,
2013-05-24 06:12:00,42.0,37.0,30.33,ESE,115,3.0,6.0,83,0.00,,,0.00,,2013-05-24 11:12:00,
2013-05-24 06:22:00,43.0,38.0,30.34,ESE,107,2.0,4.0,82,0.00,,,0.00,,2013-05-24 11:22:00,
2013-05-24 06:32:00,44.0,38.0,30.34,East,92,4.0,6.0,80,0.00,,,0.00,,2013-05-24 11:32:00,
2013-05-24 06:42:00,44.0,38.0,30.34,East,92,4.0,6.0,80,0.00,,,0.00,,2013-05-24 11:42:00,
2013-05-24 06:51:00,44.0,38.0,30.33,East,94,4.0,5.0,80,0.00,,,0.00,,2013-05-24 11:51:00,
2013-05-24 07:02:00,45.0,39.0,30.34,ESE,108,5.0,8.0,79,0.00,,,0.00,,2013-05-24 12:02:00,
2013-05-24 07:11:00,45.0,39.0,30.34,ESE,108,5.0,8.0,79,0.00,,,0.00,,2013-05-24 12:11:00,
2013-05-24 07:21:00,46.0,39.0,30.34,ESE,113,6.0,8.0,76,0.00,,,0.00,,2013-05-24 12:21:00,
2013-05-24 07:32:00,47.0,40.0,30.35,ESE,102,3.0,7.0,76,0.00,,,0.00,,2013-05-24 12:32:00,
2013-05-24 07:42:00,47.0,40.0,30.35,ESE,102,3.0,7.0,76,0.00,,,0.00,,2013-05-24 12:42:00,
2013-05-24 07:52:00,49.0,41.0,30.35,SE,140,3.0,8.0,75,0.00,,,0.00,,2013-05-24 12:52:00,
2013-05-24 08:02:00,49.0,41.0,30.35,ESE,110,5.0,8.0,73,0.00,,,0.00,,2013-05-24 13:02:00,
2013-05-24 08:11:00,49.0,41.0,30.35,ESE,110,5.0,8.0,73,0.00,,,0.00,,2013-05-24 13:11:00,
2013-05-24 08:21:00,50.0,42.0,30.35,SE,134,5.0,10.0,74,0.00,,,0.00,,2013-05-24 13:21:00,
2013-05-24 08:32:00,52.0,44.0,30.35,ESE,113,3.0,9.0,73,0.00,,,0.00,,2013-05-24 13:32:00,
2013-05-24 08:42:00,52.0,44.0,30.35,ESE,113,3.0,9.0,73,0.00,,,0.00,,2013-05-24 13:42:00,
2013-05-24 08:52:00,53.0,44.0,30.36,South,169,3.0,10.0,72,0.00,,,0.00,,2013-05-24 13:52:00,
2013-05-24 09:01:00,54.0,44.0,30.35,SSE,152,3.0,8.0,70,0.00,,,0.00,,2013-05-24 14:01:00,
2013-05-24 09:11:00,54.0,44.0,30.35,SSE,152,3.0,8.0,70,0.00,,,0.00,,2013-05-24 14:11:00,
2013-05-24 09:21:00,56.0,44.0,30.35,SSE,151,3.0,8.0,65,0.00,,,0.00,,2013-05-24 14:21:00,
2013-05-24 09:32:00,58.0,46.0,30.35,South,179,3.0,9.0,64,0.00,,,0.00,,2013-05-24 14:32:00,
2013-05-24 09:42:00,58.0,46.0,30.35,South,179,3.0,9.0,64,0.00,,,0.00,,2013-05-24 14:42:00,
2013-05-24 09:52:00,59.0,44.0,30.35,South,176,7.0,15.0,58,0.00,,,0.00,,2013-05-24 14:52:00,
2013-05-24 10:02:00,59.0,44.0,30.35,SW,214,5.0,14.0,58,0.00,,,0.00,,2013-05-24 15:02:00,
2013-05-24 10:11:00,59.0,44.0,30.35,SW,214,5.0,14.0,58,0.00,,,0.00,,2013-05-24 15:11:00,
2013-05-24 10:21:00,59.0,43.0,30.35,SE,139,12.0,18.0,56,0.00,,,0.00,,2013-05-24 15:21:00,
2013-05-24 10:32:00,60.0,46.0,30.35,South,176,8.0,16.0,59,0.00,,,0.00,,2013-05-24 15:32:00,
2013-05-24 10:43:00,60.0,46.0,30.35,South,176,8.0,16.0,59,0.00,,,0.00,,2013-05-24 15:43:00,
2013-05-24 10:52:00,61.0,46.0,30.34,South,191,6.0,18.0,58,0.00,,,0.00,,2013-05-24 15:52:00,
2013-05-24 11:03:00,61.0,43.0,30.34,South,173,12.0,17.0,51,0.00,,,0.00,,2013-05-24 16:03:00,
2013-05-24 11:12:00,61.0,43.0,30.34,South,173,12.0,17.0,51,0.00,,,0.00,,2013-05-24 16:12:00,
2013-05-24 11:22:00,63.0,46.0,30.33,South,187,7.0,14.0,54,0.00,,,0.00,,2013-05-24 16:22:00,
2013-05-24 11:32:00,64.0,48.0,30.32,South,186,5.0,13.0,57,0.00,,,0.00,,2013-05-24 16:32:00,
2013-05-24 11:42:00,64.0,48.0,30.32,South,186,5.0,13.0,57,0.00,,,0.00,,2013-05-24 16:42:00,
2013-05-24 11:52:00,64.0,45.0,30.31,SSW,200,7.0,14.0,50,0.00,,,0.00,,2013-05-24 16:52:00,
2013-05-24 12:02:00,65.0,46.0,30.31,SSE,160,7.0,14.0,50,0.00,,,0.00,,2013-05-24 17:02:00,
2013-05-24 12:12:00,65.0,46.0,30.31,SSE,160,7.0,14.0,50,0.00,,,0.00,,2013-05-24 17:12:00,
2013-05-24 12:22:00,66.0,46.0,30.30,SE,141,9.0,21.0,48,0.00,,,0.00,,2013-05-24 17:22:00,
2013-05-24 12:32:00,67.0,47.0,30.29,SE,135,5.0,13.0,49,0.00,,,0.00,,2013-05-24 17:32:00,
2013-05-24 12:42:00,67.0,47.0,30.29,SE,135,5.0,13.0,49,0.00,,,0.00,,2013-05-24 17:42:00,
2013-05-24 12:52:00,67.0,47.0,30.29,SSW,194,5.0,14.0,49,0.00,,,0.00,,2013-05-24 17:52:00,
2013-05-24 13:01:00,67.0,47.0,30.28,South,179,5.0,11.0,49,0.00,,,0.00,,2013-05-24 18:01:00,
2013-05-24 13:12:00,67.0,47.0,30.28,South,179,5.0,11.0,49,0.00,,,0.00,,2013-05-24 18:12:00,
2013-05-24 13:21:00,68.0,45.0,30.28,SE,134,8.0,15.0,43,0.00,,,0.00,,2013-05-24 18:21:00,
2013-05-24 13:32:00,67.0,46.0,30.27,SSE,158,10.0,16.0,47,0.00,,,0.00,,2013-05-24 18:32:00,
2013-05-24 13:42:00,67.0,46.0,30.27,SSE,158,10.0,16.0,47,0.00,,,0.00,,2013-05-24 18:42:00,
2013-05-24 13:51:00,69.0,50.0,30.27,South,191,5.0,14.0,50,0.00,,,0.00,,2013-05-24 18:51:00,
2013-05-24 14:01:00,69.0,44.0,30.26,SSE,148,6.0,15.0,40,0.00,,,0.00,,2013-05-24 19:01:00,
2013-05-24 14:11:00,69.0,44.0,30.26,SSE,148,6.0,15.0,40,0.00,,,0.00,,2013-05-24 19:11:00,
2013-05-24 14:21:00,70.0,48.0,30.25,ENE,61,7.0,15.0,45,0.00,,,0.00,,2013-05-24 19:21:00,
2013-05-24 14:32:00,71.0,49.0,30.24,SSE,161,5.0,17.0,46,0.00,,,0.00,,2013-05-24 19:32:00,
2013-05-24 14:41:00,71.0,49.0,30.24,SSE,161,5.0,17.0,46,0.00,,,0.00,,2013-05-24 19:41:00,
2013-05-24 14:52:00,71.0,49.0,30.23,SSE,160,6.0,20.0,46,0.00,,,0.00,,2013-05-24 19:52:00,
2013-05-24 15:02:00,70.0,48.0,30.23,SSE,168,8.0,22.0,46,0.00,,,0.00,,2013-05-24 20:02:00,
2013-05-24 15:11:00,70.0,48.0,30.23,SSE,168,8.0,22.0,46,0.00,,,0.00,,2013-05-24 20:11:00,
2013-05-24 15:21:00,70.0,49.0,30.22,SSW,192,7.0,19.0,48,0.00,,,0.00,,2013-05-24 20:21:00,
2013-05-24 15:32:00,72.0,50.0,30.21,South,172,11.0,20.0,46,0.00,,,0.00,,2013-05-24 20:32:00,
2013-05-24 15:42:00,72.0,50.0,30.21,South,172,11.0,20.0,46,0.00,,,0.00,,2013-05-24 20:42:00,
2013-05-24 15:52:00,72.0,48.0,30.20,SSE,167,13.0,19.0,43,0.00,,,0.00,,2013-05-24 20:52:00,
2013-05-24 16:01:00,71.0,48.0,30.20,South,177,12.0,23.0,44,0.00,,,0.00,,2013-05-24 21:01:00,
2013-05-24 16:11:00,71.0,48.0,30.20,South,177,12.0,23.0,44,0.00,,,0.00,,2013-05-24 21:11:00,
2013-05-24 16:21:00,70.0,48.0,30.19,SSE,153,10.0,20.0,46,0.00,,,0.00,,2013-05-24 21:21:00,
2013-05-24 16:32:00,71.0,50.0,30.19,SE,137,12.0,19.0,48,0.00,,,0.00,,2013-05-24 21:32:00,
2013-05-24 16:42:00,71.0,50.0,30.19,SE,137,12.0,19.0,48,0.00,,,0.00,,2013-05-24 21:42:00,
2013-05-24 16:53:00,72.0,50.0,30.18,South,180,14.0,23.0,46,0.00,,,0.00,,2013-05-24 21:53:00,
2013-05-24 17:02:00,71.0,49.0,30.18,South,174,15.0,24.0,45,0.00,,,0.00,,2013-05-24 22:02:00,
2013-05-24 17:12:00,71.0,49.0,30.18,South,174,15.0,24.0,45,0.00,,,0.00,,2013-05-24 22:12:00,
2013-05-24 17:22:00,73.0,50.0,30.17,SSW,192,13.0,23.0,44,0.00,,,0.00,,2013-05-24 22:22:00,
2013-05-24 17:33:00,70.0,49.0,30.16,SSW,198,9.0,22.0,48,0.00,,,0.00,,2013-05-24 22:33:00,
2013-05-24 17:42:00,70.0,49.0,30.16,SSW,198,9.0,22.0,48,0.00,,,0.00,,2013-05-24 22:42:00,
2013-05-24 17:52:00,70.0,49.0,30.16,SE,146,10.0,21.0,48,0.00,,,0.00,,2013-05-24 22:52:00,
2013-05-24 18:02:00,69.0,49.0,30.17,SSE,158,8.0,16.0,49,0.00,,,0.00,,2013-05-24 23:02:00,
2013-05-24 18:11:00,69.0,49.0,30.17,SSE,158,8.0,16.0,49,0.00,,,0.00,,2013-05-24 23:11:00,
2013-05-24 18:22:00,68.0,49.0,30.20,SSE,150,5.0,14.0,50,0.00,,,0.00,,2013-05-24 23:22:00,
2013-05-24 18:32:00,68.0,50.0,30.24,SE,146,0.0,2.0,52,0.00,,,0.00,,2013-05-24 23:32:00,
2013-05-24 18:42:00,68.0,50.0,30.24,SE,146,0.0,2.0,52,0.00,,,0.00,,2013-05-24 23:42:00,
2013-05-24 18:52:00,66.0,54.0,30.21,ESE,118,2.0,6.0,65,0.00,,,0.00,,2013-05-24 23:52:00,
2013-05-24 19:01:00,64.0,53.0,30.20,SSE,163,2.0,5.0,67,0.01,,,0.01,,2013-05-25 00:01:00,
2013-05-24 19:11:00,64.0,53.0,30.20,SSE,163,2.0,5.0,67,0.01,,,0.01,,2013-05-25 00:11:00,
2013-05-24 19:21:00,63.0,52.0,30.19,SE,135,3.0,7.0,67,0.01,,,0.01,,2013-05-25 00:21:00,
2013-05-24 19:32:00,63.0,53.0,30.19,East,95,4.0,7.0,70,0.01,,,0.01,,2013-05-25 00:32:00,
2013-05-24 19:41:00,63.0,53.0,30.19,East,95,4.0,7.0,70,0.01,,,0.01,,2013-05-25 00:41:00,
2013-05-24 19:51:00,62.0,54.0,30.19,ESE,110,6.0,9.0,74,0.01,,,0.01,,2013-05-25 00:51:00,
2013-05-24 20:01:00,62.0,53.0,30.16,SE,139,8.0,12.0,73,0.00,,,0.01,,2013-05-25 01:01:00,
2013-05-24 20:11:00,62.0,53.0,30.16,SE,139,8.0,12.0,73,0.00,,,0.01,,2013-05-25 01:11:00,
2013-05-24 20:22:00,62.0,53.0,30.16,SE,139,8.0,12.0,73,0.00,,,0.01,,2013-05-25 01:22:00,
2013-05-24 20:32:00,62.0,52.0,30.16,SE,134,8.0,12.0,69,0.00,,,0.01,,2013-05-25 01:32:00,
2013-05-24 20:42:00,62.0,52.0,30.16,SE,134,8.0,12.0,69,0.00,,,0.01,,2013-05-25 01:42:00,
2013-05-24 20:52:00,61.0,52.0,30.16,SE,127,5.0,10.0,72,0.00,,,0.01,,2013-05-25 01:52:00,
2013-05-24 21:02:00,61.0,53.0,30.15,SE,136,6.0,8.0,74,0.00,,,0.01,,2013-05-25 02:02:00,
2013-05-24 21:11:00,61.0,53.0,30.15,SE,136,6.0,8.0,74,0.00,,,0.01,,2013-05-25 02:11:00,
2013-05-24 21:21:00,61.0,53.0,30.15,East,99,6.0,11.0,74,0.00,,,0.01,,2013-05-25 02:21:00,
2013-05-24 21:32:00,60.0,52.0,30.14,ESE,108,6.0,13.0,74,0.00,,,0.01,,2013-05-25 02:32:00,
2013-05-24 21:42:00,60.0,52.0,30.14,ESE,108,6.0,13.0,74,0.00,,,0.01,,2013-05-25 02:42:00,
2013-05-24 21:51:00,60.0,52.0,30.15,SE,132,7.0,12.0,74,0.00,,,0.01,,2013-05-25 02:51:00,
2013-05-24 22:02:00,59.0,51.0,30.15,South,174,4.0,11.0,76,0.00,,,0.01,,2013-05-25 03:02:00,
2013-05-24 22:11:00,59.0,51.0,30.15,South,174,4.0,11.0,76,0.00,,,0.01,,2013-05-25 03:11:00,
2013-05-24 22:21:00,59.0,51.0,30.15,South,170,3.0,9.0,76,0.00,,,0.01,,2013-05-25 03:21:00,
2013-05-24 22:32:00,59.0,50.0,30.16,SSE,158,2.0,9.0,72,0.00,,,0.01,,2013-05-25 03:32:00,
2013-05-24 22:43:00,59.0,50.0,30.16,SSE,158,2.0,9.0,72,0.00,,,0.01,,2013-05-25 03:43:00,
2013-05-24 22:53:00,59.0,49.0,30.17,South,170,6.0,10.0,70,0.00,,,0.01,,2013-05-25 03:53:00,
2013-05-24 23:02:00,59.0,49.0,30.18,South,176,5.0,17.0,70,0.00,,,0.01,,2013-05-25 04:02:00,
2013-05-24 23:12:00,59.0,49.0,30.18,South,176,5.0,17.0,70,0.00,,,0.01,,2013-05-25 04:12:00,
2013-05-24 23:23:00,59.0,49.0,30.19,South,170,8.0,12.0,69,0.00,,,0.01,,2013-05-25 04:23:00,
2013-05-24 23:33:00,59.0,50.0,30.21,South,169,7.0,15.0,71,0.00,,,0.01,,2013-05-25 04:33:00,
2013-05-24 23:43:00,59.0,50.0,30.21,South,169,7.0,15.0,71,0.00,,,0.01,,2013-05-25 04:43:00,
2013-05-24 23:52:00,58.0,50.0,30.21,South,176,5.0,9.0,75,0.00,,,0.01,,2013-05-25 04:52:00,